| time (UTC) | temp C | wind direction | speed KPH | gust KPH | rain 1hr cm | rain 24hr cm | rain mn cm | humidity % | barometer mb |
| 20260505171505 | 16 | 251 | 1.6 | 16.1 | 0.00 | 0.00 | 0.00 | 68 | 1005.0 |
| 20260505170043 | 16 | 190 | 3.2 | 12.9 | 0.00 | 0.00 | 0.00 | 69 | 1005.5 |
| 20260505164519 | 16 | 163 | 3.2 | 14.5 | 0.00 | 0.00 | 0.00 | 68 | 1005.7 |
| 20260505163058 | 16 | 90 | 1.6 | 11.3 | 0.00 | 0.00 | 0.00 | 69 | 1005.7 |
| 20260505161534 | 15 | 240 | 3.2 | 16.1 | 0.00 | 0.00 | 0.00 | 69 | 1006.1 |
| 20260505153049 | 16 | 134 | 1.6 | 12.9 | 0.00 | 0.00 | 0.00 | 70 | 1006.7 |
| 20260505151536 | 15 | 186 | 3.2 | 11.3 | 0.00 | 0.00 | 0.00 | 73 | 1006.8 |
| 20260505124551 | 11 | 201 | 4.8 | 14.5 | 0.00 | 0.00 | 0.00 | 79 | 1006.8 |
| 20260505123032 | 11 | 188 | 0.0 | 11.3 | 0.00 | 0.00 | 0.00 | 81 | 1006.7 |
| 20260505121512 | 10 | 202 | 3.2 | 11.3 | 0.00 | 0.00 | 0.00 | 82 | 1006.9 |
| 20260505120109 | 10 | 139 | 1.6 | 12.9 | 0.00 | 0.00 | 0.00 | 84 | 1007.0 |
| 20260505114531 | 10 | 175 | 1.6 | 9.7 | 0.00 | 0.00 | 0.00 | 84 | 1007.2 |
| 20260505113019 | 9 | 155 | 3.2 | 8.0 | 0.00 | 0.00 | 0.00 | 85 | 1007.4 |
| 20260505111508 | 9 | 131 | 1.6 | 9.7 | 0.00 | 0.00 | 0.00 | 84 | 1007.3 |
| 20260505110104 | 9 | 157 | 0.0 | 8.0 | 0.00 | 0.00 | 0.00 | 84 | 1007.0 |
| 20260505101550 | 8 | 174 | 0.0 | 3.2 | 0.00 | 0.00 | 0.00 | 85 | 1007.2 |
| 20260505100032 | 8 | 135 | 0.0 | 6.4 | 0.00 | 0.00 | 0.00 | 85 | 1007.0 |
| 20260505094515 | 8 | 158 | 0.0 | 3.2 | 0.00 | 0.00 | 0.00 | 85 | 1007.2 |
| 20260505093053 | 7 | 141 | 0.0 | 4.8 | 0.00 | 0.00 | 0.00 | 85 | 1007.0 |
| 20260505091551 | 7 | 180 | 0.0 | 4.8 | 0.00 | 0.00 | 0.00 | 85 | 1007.1 |
| 20260505090022 | 7 | 150 | 0.0 | 0.0 | 0.00 | 0.00 | 0.00 | 84 | 1007.2 |
| 20260505084502 | 7 | 137 | 0.0 | 0.0 | 0.00 | 0.00 | 0.00 | 83 | 1007.3 |
| 20260505083054 | 8 | 137 | 0.0 | 1.6 | 0.00 | 0.00 | 0.00 | 82 | 1007.4 |
| 20260505081521 | 8 | 148 | 0.0 | 3.2 | 0.00 | 0.00 | 0.00 | 81 | 1007.4 |
| 20260505080058 | 8 | 158 | 0.0 | 0.0 | 0.00 | 0.00 | 0.00 | 79 | 1007.6 |
| 20260505074527 | 8 | 170 | 0.0 | 0.0 | 0.00 | 0.00 | 0.00 | 78 | 1007.5 |
| 20260505073103 | 9 | 147 | 0.0 | 3.2 | 0.00 | 0.00 | 0.00 | 77 | 1007.5 |
| 20260505071541 | 9 | 146 | 0.0 | 0.0 | 0.00 | 0.00 | 0.00 | 76 | 1007.5 |
| 20260505070018 | 10 | 146 | 0.0 | 4.8 | 0.00 | 0.00 | 0.00 | 74 | 1007.5 |
| 20260505064639 | 10 | 161 | 0.0 | 6.4 | 0.00 | 0.00 | 0.00 | 71 | 1007.3 |
| 20260505063039 | 11 | 151 | 0.0 | 4.8 | 0.00 | 0.00 | 0.00 | 67 | 1007.2 |
| 20260505061515 | 13 | 220 | 0.0 | 8.0 | 0.00 | 0.00 | 0.00 | 59 | 1007.2 |
| 20260505060053 | 14 | 235 | 0.0 | 8.0 | 0.00 | 0.00 | 0.00 | 55 | 1007.2 |
| 20260505054544 | 14 | 254 | 3.2 | 12.9 | 0.00 | 0.00 | 0.00 | 54 | 1007.1 |
| 20260505053007 | 14 | 132 | 0.0 | 14.5 | 0.00 | 0.00 | 0.00 | 53 | 1007.2 |
| 20260505051545 | 15 | 218 | 1.6 | 11.3 | 0.00 | 0.00 | 0.00 | 52 | 1007.1 |
| 20260505041534 | 15 | 254 | 1.6 | 16.1 | 0.00 | 0.00 | 0.00 | 50 | 1006.8 |
| 20260505040011 | 15 | 190 | 0.0 | 12.9 | 0.00 | 0.00 | 0.00 | 51 | 1006.6 |
| 20260505034609 | 15 | 223 | 4.8 | 19.3 | 0.00 | 0.00 | 0.00 | 52 | 1006.5 |
| 20260505033032 | 15 | 205 | 1.6 | 12.9 | 0.00 | 0.00 | 0.00 | 53 | 1006.5 |
| 20260505031506 | 15 | 265 | 3.2 | 9.7 | 0.00 | 0.00 | 0.00 | 54 | 1006.5 |
| 20260505030049 | 15 | 252 | 1.6 | 14.5 | 0.00 | 0.00 | 0.00 | 54 | 1006.6 |
| 20260505024521 | 14 | 245 | 1.6 | 12.9 | 0.00 | 0.00 | 0.00 | 57 | 1006.6 |
| 20260505023056 | 11 | 211 | 0.0 | 14.5 | 0.00 | 0.00 | 0.00 | 67 | 1006.5 |
| 20260505021536 | 11 | 142 | 0.0 | 3.2 | 0.00 | 0.00 | 0.00 | 73 | 1006.3 |
| 20260505020014 | 11 | 153 | 0.0 | 3.2 | 0.00 | 0.00 | 0.00 | 73 | 1006.2 |
| 20260505014555 | 10 | 188 | 0.0 | 8.0 | 0.00 | 0.00 | 0.00 | 74 | 1006.1 |
| 20260505013038 | 10 | 169 | 0.0 | 4.8 | 0.00 | 0.00 | 0.00 | 74 | 1005.9 |
| 20260505011519 | 10 | 124 | 0.0 | 8.0 | 0.00 | 0.00 | 0.00 | 74 | 1005.8 |
| 20260505010008 | 10 | 197 | 1.6 | 8.0 | 0.00 | 0.00 | 0.00 | 73 | 1005.7 |
| 20260505004600 | 11 | 173 | 1.6 | 9.7 | 0.00 | 0.00 | 0.00 | 69 | 1005.4 |
| 20260505003033 | 12 | 165 | 3.2 | 8.0 | 0.00 | 0.00 | 0.00 | 63 | 1005.1 |
| 20260505001511 | 15 | 162 | 0.0 | 3.2 | 0.00 | 0.00 | 0.00 | 55 | 1004.9 |
| 20260505000109 | 17 | 117 | 1.6 | 6.4 | 0.00 | 0.00 | 0.00 | 47 | 1004.7 |
| 20260504234539 | 18 | 219 | 0.0 | 4.8 | 0.00 | 0.00 | 0.00 | 36 | 1004.3 |
| 20260504233021 | 19 | 264 | 0.0 | 3.2 | 0.00 | 0.00 | 0.00 | 35 | 1004.2 |
| 20260504231625 | 20 | 247 | 0.0 | 4.8 | 0.00 | 0.00 | 0.00 | 34 | 1003.9 |
| 20260504230037 | 20 | 286 | 1.6 | 6.4 | 0.00 | 0.00 | 0.00 | 33 | 1003.7 |
| 20260504224513 | 20 | 256 | 0.0 | 8.0 | 0.00 | 0.00 | 0.00 | 33 | 1003.6 |
| 20260504223057 | 20 | 294 | 1.6 | 11.3 | 0.00 | 0.00 | 0.00 | 32 | 1003.5 |
| 20260504221550 | 21 | 17 | 0.0 | 12.9 | 0.00 | 0.00 | 0.00 | 32 | 1003.4 |
| 20260504220015 | 21 | 236 | 1.6 | 29.0 | 0.00 | 0.00 | 0.00 | 31 | 1003.4 |
| 20260504214603 | 22 | 292 | 0.0 | 16.1 | 0.00 | 0.00 | 0.00 | 31 | 1003.4 |
| 20260504213040 | 22 | 355 | 4.8 | 19.3 | 0.00 | 0.00 | 0.00 | 29 | 1003.3 |
| 20260504211513 | 22 | 153 | 1.6 | 22.5 | 0.00 | 0.00 | 0.00 | 30 | 1003.4 |
| 20260504210053 | 22 | 232 | 0.0 | 12.9 | 0.00 | 0.00 | 0.00 | 30 | 1003.3 |
| 20260504204525 | 22 | 254 | 1.6 | 14.5 | 0.00 | 0.00 | 0.00 | 30 | 1003.3 |
| 20260504203052 | 22 | 336 | 0.0 | 19.3 | 0.00 | 0.00 | 0.00 | 31 | 1003.1 |
| 20260504201543 | 22 | 336 | 3.2 | 19.3 | 0.00 | 0.00 | 0.00 | 32 | 1003.2 |
| 20260504200015 | 21 | 296 | 1.6 | 11.3 | 0.00 | 0.00 | 0.00 | 33 | 1003.3 |
| 20260504194604 | 21 | 11 | 1.6 | 14.5 | 0.00 | 0.00 | 0.00 | 32 | 1003.4 |
| 20260504193030 | 21 | 307 | 1.6 | 12.9 | 0.00 | 0.00 | 0.00 | 34 | 1003.6 |
| 20260504191510 | 20 | 302 | 1.6 | 19.3 | 0.00 | 0.00 | 0.00 | 34 | 1003.6 |
| 20260504190047 | 18 | 265 | 0.0 | 16.1 | 0.00 | 0.00 | 0.00 | 37 | 1003.7 |
| 20260504184538 | 18 | 349 | 3.2 | 17.7 | 0.00 | 0.00 | 0.00 | 35 | 1003.8 |
| 20260504183006 | 19 | 252 | 3.2 | 22.5 | 0.00 | 0.00 | 0.00 | 33 | 1003.7 |
| 20260504181547 | 19 | 301 | 1.6 | 8.0 | 0.00 | 0.00 | 0.00 | 34 | 1003.7 |
| 20260504180036 | 19 | 282 | 8.0 | 19.3 | 0.00 | 0.00 | 0.00 | 33 | 1003.9 |
| 20260504174511 | 19 | 331 | 8.0 | 24.1 | 0.00 | 0.00 | 0.00 | 32 | 1003.6 |
| 20260504173050 | 20 | 231 | 9.7 | 25.7 | 0.00 | 0.00 | 0.00 | 31 | 1003.7 |